Location: Newark
(13.6797°N, 8.5297°E)
Time: 18:23:18
(UTC+00:00)

Tiros 1 despin weight - Visible Passes

Search period start: 19 January 2020 00:00
Search period end: 29 January 2020 00:00
Orbit: 593 x 643 km, 48.2° (Epoch: 19 January)

Date Brightness Start Highest point End Pass type
(mag) Time Alt. Az. Time Alt. Az. Time Alt. Az.
22 Jan ? 19:05:38 10° NNW 19:06:39 16° NNW 19:06:39 16° NNW visible
23 Jan ? 19:21:49 10° NW 19:24:00 27° NW 19:24:00 27° NW visible
24 Jan ? 17:57:46 10° N 18:01:28 23° NE 18:04:38 12° E visible
24 Jan ? 19:38:49 10° WNW 19:41:50 28° W 19:41:50 28° W visible
25 Jan ? 18:13:30 10° NNW 18:18:05 55° NE 18:22:40 10° SE visible
25 Jan ? 19:57:27 10° WSW 19:59:22 12° SW 20:00:17 12° SW visible
26 Jan ? 18:30:00 10° NW 18:34:34 56° SW 18:39:09 10° SSE visible
27 Jan ? 18:47:26 10° WNW 18:51:00 21° SW 18:54:34 10° S visible
